Terug naar catalogus

CZ-4 DEB

ActiefSSO
NORAD 27762·DEBRIS·🇨🇳 China

Gelanceerd Oct 14, 1999 vanaf Taiyuan Satellite Launch Center

Loading…

Volgende Passages (komende 24 uur)

TLE

VersSource: Space-Track

Epoch: Sep 14, 2026, 13:15 UTC

1 27762U 99057MV  26257.55276914  .00001064  00000-0  44672-3 0  9992
2 27762  98.6924  13.7819 0166308 188.0055 233.2405 14.20774822275802

Volg CZ-4 DEB in realtime met AllMySat

Download on the App Store